Wind_Speed
7 7 7 8 8 8 8 8 8 8 7 7 7 7 8 8 8 7 8 8 9 9 9 9 9 10 11 12 12 12 13 13 14 14 14 15 15 15 16 15 15 15 15
7 7 7 8 8 8 9 9 8 8 8 8 8 7 8 8 8 8 8 9 9 10 10 10 10 10 11 12 12 13 13 13 13 13 14 14 15 16 17 17 17 17 17
7 7 7 8 8 8 9 9 8 8 9 8 8 8 8 9 9 9 10 10 10 10 11 11 11 11 11 12 12 12 13 13 13 14 14 15 15 16 17 18 18 18 18
8 8 8 8 8 8 8 9 9 9 9 9 9 10 10 9 10 10 11 11 11 11 11 11 11 11 12 12 12 12 13 13 14 14 14 15 16 17 17 18 19 19 19
9 9 9 9 8 9 9 9 9 10 10 10 10 11 11 11 12 11 12 12 12 12 11 12 12 13 13 13 12 13 13 14 15 15 15 15 16 17 18 18 19 20 20
9 9 9 9 9 9 10 10 10 10 10 10 11 12 12 12 13 12 13 13 13 12 13 13 14 14 13 13 13 12 13 13 14 15 15 16 17 17 17 18 18 18 18
9 10 9 9 9 9 10 10 10 10 10 11 12 13 13 12 12 13 13 13 12 13 14 14 15 15 14 14 13 12 13 13 13 14 15 16 16 17 18 18 18 19 19
10 10 9 10 9 10 10 10 10 10 11 12 12 13 14 14 14 14 13 13 13 14 14 14 15 16 15 15 14 13 13 14 14 14 15 16 17 17 18 18 19 19 19
10 10 10 10 10 10 10 10 11 11 11 12 13 14 14 14 14 14 14 14 14 14 15 16 15 15 16 16 15 14 14 15 14 14 15 15 16 17 17 17 18 18 19
11 11 10 10 10 10 10 10 11 11 12 13 13 13 14 14 14 15 14 14 15 15 16 16 16 15 16 16 16 15 14 15 15 15 15 15 16 17 17 18 18 19 19
11 11 11 11 10 10 10 11 11 12 13 13 13 14 14 15 15 15 15 15 16 16 17 17 16 16 16 17 16 16 15 16 16 16 16 16 16 17 17 18 19 19 19
12 11 11 10 10 10 11 12 12 13 13 14 14 14 15 15 16 16 16 16 17 17 18 18 17 17 17 17 17 16 16 16 16 16 17 17 17 18 18 18 19 20 20
12 12 11 11 11 11 12 12 13 14 14 14 14 15 15 16 16 16 16 17 17 18 18 19 18 18 18 17 16 16 16 16 16 17 17 18 18 18 18 19 19 20 20
14 13 13 13 13 13 13 13 14 14 14 15 15 15 16 16 16 16 16 17 18 18 19 19 19 18 18 18 17 16 17 17 18 18 19 19 19 18 19 18 19 20 20
14 14 14 14 14 13 13 14 15 15 15 15 16 16 17 16 16 16 17 18 18 19 19 19 19 19 19 18 17 17 17 17 18 19 19 19 20 20 19 20 20 21 21
14 14 14 15 15 14 14 15 16 16 15 16 16 17 17 17 17 18 18 18 19 19 20 19 19 19 19 19 19 18 18 18 18 19 19 20 20 20 21 21 21 21 22
15 15 16 17 17 16 15 16 17 17 17 17 17 18 18 17 18 19 19 19 19 19 19 19 20 20 20 20 20 20 19 19 19 19 20 20 20 21 21 21 21 21 22
18 18 18 18 18 17 16 17 18 18 18 18 18 18 18 18 18 19 19 20 20 20 20 20 19 20 20 20 20 20 21 21 21 21 20 21 22 22 22 22 21 21 22
20 19 19 19 20 19 19 20 20 20 19 19 19 19 19 19 19 20 20 21 21 22 21 21 21 21 21 21 21 21 22 22 22 22 21 21 21 22 23 22 22 23 23
20 20 21 21 21 21 21 22 22 22 21 20 20 20 21 20 20 20 21 21 22 22 22 22 22 22 22 22 22 21 22 22 23 23 23 23 22 22 22 23 23 23 24
21 22 22 22 22 22 22 23 23 23 22 21 20 21 22 21 21 22 22 22 23 23 23 23 22 23 23 23 23 23 23 23 23 24 24 24 23 23 22 23 23 24 24
22 22 23 23 23 23 24 25 24 24 23 22 21 21 22 22 22 23 23 23 24 24 24 24 24 23 23 24 24 23 23 24 24 24 24 24 24 24 23 23 24 24 24
23 23 24 24 24 24 25 26 25 25 25 24 23 23 23 24 24 24 24 24 25 25 25 26 25 25 25 25 25 24 25 25 25 24 24 24 24 25 25 25 25 25 24
24 25 25 25 25 25 26 27 25 24 24 24 24 25 25 25 25 25 25 26 27 27 27 28 27 27 26 26 26 26 26 26 26 25 25 25 24 24 24 25 25 25 25
26 26 26 26 26 26 26 27 26 25 24 24 25 26 26 26 26 26 27 28 28 28 29 29 29 28 27 28 27 27 26 26 25 25 25 25 25 25 25 25 25 26 26
27 26 26 25 26 26 26 26 26 26 25 25 25 26 27 27 27 27 28 29 29 30 30 29 29 28 28 28 27 27 27 25 25 25 25 25 25 25 25 25 25 25 26
Wind_Direction
4 2 7 7 5 4 4 2 359 355 352 349 346 337 334 334 334 333 331 327 323 318 311 305 301 292 287 284 283 278 273 272 270 265 258 254 254 251 251 250 251 251 252
3 357 359 358 357 359 359 357 352 348 346 346 344 340 338 335 335 333 331 328 325 319 311 308 306 300 294 290 286 279 276 272 269 265 263 259 257 254 252 251 252 251 251
354 347 347 348 349 350 351 350 344 344 344 341 339 335 334 333 331 327 325 326 323 316 313 310 306 303 300 293 288 284 280 275 272 268 264 262 259 256 255 254 254 254 254
352 346 345 345 345 345 345 344 343 342 343 341 337 331 327 327 325 322 322 325 325 319 313 311 309 306 305 298 290 283 280 276 273 269 266 264 262 260 257 258 259 257 256
345 342 340 340 341 341 342 342 341 341 341 336 332 329 327 327 326 323 321 320 323 323 320 315 310 307 305 300 293 286 282 280 275 272 270 268 265 264 261 260 259 257 256
334 334 333 331 332 336 338 341 340 336 336 334 329 328 329 326 325 322 320 318 318 319 321 318 313 310 309 306 298 288 285 283 280 278 275 272 268 265 263 261 260 258 256
332 330 330 332 329 332 335 337 336 334 332 331 328 326 327 327 324 322 320 321 321 320 320 318 315 314 309 305 299 291 288 284 283 282 280 276 272 268 264 261 260 260 259
326 325 328 330 329 329 333 335 336 335 332 331 329 328 327 327 326 323 319 321 322 322 320 317 315 312 307 301 297 290 286 283 284 283 281 278 274 270 266 263 262 262 261
324 325 324 323 325 326 328 329 330 330 329 327 326 327 328 329 328 324 321 320 320 319 318 315 313 312 308 302 297 296 291 287 288 285 283 280 277 273 269 266 265 264 263
325 322 320 319 319 320 322 325 326 326 325 328 327 329 329 330 328 325 322 320 319 320 319 316 313 311 309 306 300 296 293 291 290 289 286 282 279 276 272 269 266 265 264
315 317 322 322 317 317 320 324 326 325 323 325 326 327 328 329 327 324 324 322 320 319 319 319 315 310 309 309 305 295 291 291 291 291 290 287 281 279 277 274 270 268 267
310 313 317 321 320 321 323 324 324 324 325 326 324 325 328 329 327 326 324 322 321 319 317 316 313 309 308 309 307 303 298 293 292 290 290 291 288 282 278 276 273 270 269
305 308 312 315 317 319 320 323 323 321 324 326 325 326 328 329 327 325 324 323 321 320 317 313 309 308 307 307 306 303 302 297 291 290 289 289 289 284 280 277 275 272 270
299 303 307 314 317 314 316 319 320 318 322 324 325 326 328 329 329 329 327 324 322 320 318 315 310 309 309 308 307 303 300 300 296 289 288 289 288 286 283 278 274 272 270
297 299 305 309 312 309 312 315 316 316 317 319 322 323 324 323 323 326 326 324 322 321 319 316 314 314 312 310 309 307 305 302 299 296 293 289 287 285 284 279 276 274 272
295 298 302 306 306 302 304 309 310 310 311 313 317 321 321 319 319 320 321 322 322 321 320 317 315 314 311 308 305 306 305 305 304 301 297 293 289 284 284 281 278 276 274
290 294 300 302 301 296 297 301 304 307 310 311 313 316 319 317 316 318 318 319 320 321 322 320 317 315 313 310 307 307 305 305 303 301 298 294 289 287 285 284 283 280 278
286 291 295 298 299 295 294 298 300 304 307 309 311 314 317 317 318 318 319 321 321 321 320 318 317 316 314 311 308 305 305 303 302 301 298 295 291 288 287 284 283 282 280
284 287 290 292 295 293 293 296 299 302 303 305 308 310 312 314 314 315 317 318 318 318 316 317 317 316 315 312 309 305 304 303 302 301 298 295 291 289 287 285 283 282 282
283 285 287 289 291 292 294 297 299 300 299 301 304 306 308 310 312 312 313 313 314 315 315 314 315 315 313 312 310 307 305 303 301 298 297 296 293 292 290 287 284 282 281
281 283 284 286 288 288 290 294 296 297 297 297 300 303 305 306 308 309 309 309 310 311 313 312 312 312 311 310 309 308 306 303 301 299 297 295 293 291 290 288 284 282 281
279 281 281 283 286 287 288 290 292 294 293 294 297 299 302 303 306 308 309 308 308 310 311 311 310 310 310 310 309 306 305 304 302 299 297 295 291 288 288 288 285 282 281
278 280 282 283 285 286 288 290 290 291 292 294 298 299 299 300 302 305 308 310 310 310 309 309 307 307 308 308 308 305 304 304 303 300 297 294 293 289 288 287 286 284 282
276 279 281 283 285 286 287 291 292 293 294 295 296 297 298 297 298 301 304 308 309 309 310 310 309 308 309 307 306 304 301 300 301 299 296 293 293 291 290 289 289 287 284
278 278 281 283 285 286 288 290 290 292 292 294 295 295 295 296 298 300 303 306 307 307 308 308 308 307 307 306 304 303 301 301 300 298 296 295 293 291 290 290 290 288 285
280 280 281 282 284 285 287 289 290 292 292 293 294 295 298 300 300 301 303 305 305 305 305 305 306 306 307 307 305 304 302 301 301 299 296 295 294 292 289 289 290 289 287
Height
5892 5890 5889 5887 5886 5884 5883 5881 5880 5878 5877 5875 5873 5872 5871 5869 5868 5866 5865 5864 5862 5861 5860 5859 5859 5858 5857 5856 5855 5855 5854 5855 5855 5854 5855 5855 5856 5856 5857 5858 5859 5860 5861
5892 5890 5889 5887 5886 5884 5882 5881 5879 5878 5876 5875 5873 5872 5870 5869 5867 5865 5864 5862 5861 5859 5858 5857 5856 5855 5854 5853 5852 5852 5851 5851 5851 5851 5851 5852 5853 5853 5854 5854 5855 5856 5857
5891 5890 5888 5887 5885 5884 5882 5880 5879 5877 5875 5874 5872 5871 5869 5867 5866 5864 5863 5861 5859 5858 5856 5855 5854 5853 5851 5850 5849 5849 5848 5847 5847 5847 5848 5848 5848 5849 5850 5850 5851 5852 5853
5890 5889 5887 5886 5884 5883 5881 5880 5878 5876 5875 5873 5871 5870 5868 5866 5864 5863 5861 5859 5857 5855 5854 5852 5851 5850 5848 5847 5846 5845 5845 5844 5844 5843 5844 5844 5844 5845 5846 5846 5846 5847 5848
5890 5888 5887 5885 5884 5882 5880 5879 5877 5875 5873 5871 5870 5868 5866 5865 5863 5861 5859 5857 5855 5853 5851 5850 5848 5847 5845 5843 5842 5841 5841 5840 5840 5840 5840 5840 5840 5840 5841 5841 5842 5842 5843
5889 5887 5886 5884 5883 5881 5879 5877 5876 5874 5872 5870 5868 5867 5865 5863 5861 5859 5856 5854 5853 5851 5849 5847 5845 5843 5842 5840 5838 5837 5837 5837 5836 5836 5836 5836 5836 5836 5836 5837 5837 5837 5838
5887 5886 5884 5883 5881 5880 5878 5876 5874 5873 5871 5869 5867 5865 5863 5860 5858 5857 5855 5852 5850 5849 5847 5845 5843 5841 5839 5837 5835 5834 5833 5833 5832 5832 5831 5831 5831 5831 5832 5832 5832 5833 5834
5886 5884 5883 5881 5879 5878 5876 5875 5873 5871 5869 5867 5865 5863 5861 5858 5856 5854 5852 5850 5848 5846 5844 5842 5840 5838 5836 5834 5832 5830 5830 5829 5828 5827 5827 5826 5826 5826 5827 5827 5828 5828 5829
5884 5883 5881 5879 5878 5876 5874 5873 5871 5869 5867 5865 5863 5861 5859 5856 5854 5852 5850 5848 5846 5843 5841 5839 5837 5834 5832 5831 5829 5827 5826 5825 5824 5823 5822 5822 5822 5822 5822 5822 5823 5824 5824
5882 5881 5879 5877 5876 5874 5873 5871 5869 5867 5865 5863 5861 5859 5856 5854 5851 5849 5847 5845 5842 5840 5838 5836 5833 5831 5829 5827 5825 5824 5822 5821 5820 5819 5818 5818 5817 5817 5817 5817 5818 5818 5818
5880 5878 5877 5875 5874 5872 5871 5869 5867 5865 5863 5861 5859 5857 5854 5852 5849 5846 5844 5842 5839 5837 5835 5832 5830 5828 5825 5823 5821 5820 5818 5817 5816 5815 5814 5813 5812 5812 5812 5812 5812 5812 5813
5878 5876 5875 5873 5871 5870 5868 5867 5865 5863 5861 5858 5856 5854 5852 5849 5847 5844 5841 5839 5836 5834 5831 5829 5826 5824 5822 5820 5818 5816 5814 5813 5812 5810 5810 5809 5808 5807 5807 5807 5806 5807 5807
5876 5874 5872 5871 5869 5867 5866 5864 5862 5860 5858 5855 5853 5851 5849 5846 5844 5841 5839 5836 5833 5830 5827 5825 5822 5820 5818 5816 5814 5812 5810 5809 5807 5806 5805 5804 5803 5802 5802 5801 5801 5801 5801
5873 5871 5870 5868 5866 5864 5862 5861 5859 5857 5855 5853 5850 5848 5845 5843 5841 5838 5835 5833 5830 5827 5824 5821 5818 5816 5814 5812 5810 5808 5806 5804 5802 5801 5800 5799 5798 5797 5796 5796 5795 5795 5794
5870 5868 5866 5864 5863 5861 5859 5858 5856 5854 5851 5849 5847 5844 5842 5839 5837 5835 5832 5829 5826 5823 5820 5817 5814 5812 5810 5808 5806 5804 5802 5800 5798 5796 5794 5793 5792 5791 5791 5790 5789 5789 5788
5866 5864 5863 5861 5859 5858 5856 5854 5852 5850 5848 5846 5843 5841 5838 5836 5834 5831 5829 5826 5823 5820 5817 5813 5811 5808 5806 5804 5801 5799 5797 5795 5793 5791 5789 5788 5786 5786 5785 5784 5783 5783 5782
5861 5860 5859 5857 5856 5854 5852 5850 5848 5846 5844 5842 5840 5837 5835 5832 5830 5827 5825 5822 5819 5816 5813 5810 5807 5804 5802 5799 5797 5795 5792 5790 5788 5786 5784 5782 5781 5780 5778 5777 5776 5776 5775
5857 5856 5854 5853 5851 5849 5848 5846 5844 5842 5840 5838 5836 5833 5831 5828 5826 5823 5820 5818 5815 5812 5809 5806 5803 5800 5797 5795 5792 5790 5787 5785 5783 5780 5778 5777 5775 5774 5772 5771 5770 5769 5769
5852 5851 5849 5848 5846 5845 5843 5841 5839 5837 5835 5833 5831 5828 5826 5824 5821 5819 5816 5813 5810 5807 5804 5801 5798 5795 5792 5790 5787 5784 5782 5779 5777 5775 5773 5771 5769 5767 5766 5765 5764 5763 5762
5846 5845 5844 5842 5841 5840 5838 5836 5834 5832 5830 5828 5825 5823 5821 5819 5816 5814 5811 5808 5805 5802 5799 5796 5793 5790 5787 5784 5781 5779 5776 5773 5771 5769 5766 5764 5762 5761 5759 5758 5757 5756 5755
5840 5839 5838 5836 5835 5834 5832 5831 5829 5826 5824 5822 5819 5817 5815 5813 5811 5808 5805 5803 5800 5797 5794 5791 5788 5785 5782 5779 5776 5772 5770 5767 5764 5762 5760 5758 5756 5754 5752 5751 5750 5749 5748
5833 5832 5831 5830 5829 5827 5826 5824 5822 5820 5818 5816 5814 5812 5809 5807 5804 5802 5799 5796 5794 5791 5788 5785 5782 5779 5776 5773 5769 5766 5763 5760 5758 5755 5753 5751 5749 5747 5746 5744 5743 5742 5741
5826 5825 5824 5823 5822 5821 5819 5817 5815 5813 5811 5809 5807 5805 5803 5801 5798 5796 5793 5790 5787 5784 5781 5779 5775 5772 5769 5766 5763 5760 5757 5753 5751 5748 5746 5743 5741 5740 5739 5737 5736 5734 5733
5819 5818 5817 5816 5815 5813 5812 5810 5807 5806 5804 5803 5801 5799 5796 5794 5792 5789 5787 5784 5781 5777 5775 5772 5768 5765 5762 5759 5756 5752 5749 5746 5743 5741 5738 5736 5734 5733 5731 5729 5728 5726 5725
5811 5810 5809 5808 5807 5806 5805 5803 5801 5799 5798 5796 5794 5792 5789 5787 5785 5783 5780 5777 5774 5771 5768 5764 5761 5758 5755 5752 5748 5745 5742 5739 5736 5733 5731 5729 5727 5725 5723 5722 5720 5718 5716
5803 5802 5801 5800 5800 5799 5797 5795 5794 5792 5790 5789 5787 5785 5782 5780 5777 5775 5773 5770 5767 5764 5760 5757 5754 5751 5748 5744 5741 5737 5735 5732 5729 5726 5723 5721 5719 5717 5715 5714 5712 5710 5708